Regional Weather Roundup
Issued by NWS Newport/Morehead, NC

Current Version | Previous Version | Graphics & Text | Print | Product List | Glossary Off
Versions: 1 2 3 4 5 6 7 8 9 10 11 12 13 14 15 16 17 18 19 20 21 22 23 24 25 26 27 28 29 30 31 32 33 34 35 36 37 38 39 40 41 42 43 44 45 46 47 48 49 50

369
ASUS42 KMHX 291325
RWRMHX
WEATHER ROUNDUP FOR EASTERN NORTH CAROLINA
NATIONAL WEATHER SERVICE NEWPORT/MOREHEAD CITY NC
900 AM EDT MON AUG 29 2016

NOTE: "FAIR" INDICATES FEW OR NO CLOUDS BELOW 12,000 FEET
WITH NO SIGNIFICANT WEATHER AND/OR OBSTRUCTIONS TO VISIBILITY

NCZ015>017-031-032-045>047-102-103-291400-
NORTH COAST

CITY           SKY/WX    TMP DP  RH WIND       PRES   REMARKS
EDENTON        CLOUDY    81  76  86 NE3       30.11S
ELIZABETH CITY CLOUDY    83  75  77 NE9       30.11R
KITTY HAWK     MOSUNNY   83  80  89 NE5       30.09R
MANTEO         SUNNY     81  78  89 NE9       30.10R

$$

NCZ045>047-081-094-103-104-291400-
CENTRAL COAST

CITY           SKY/WX    TMP DP  RH WIND       PRES   REMARKS
FRISCO         SUNNY     83  75  77 NE7       30.07S

$$

NCZ095-097-098-100-101-291400-
SOUTHERN COAST

CITY           SKY/WX    TMP DP  RH WIND       PRES   REMARKS
BEAUFORT       SUNNY     82  78  88 N8        30.07S
CEDAR ISLAND   NOT AVBL
JACKSONVILLE   CLOUDY    79  74  84 NE7       30.08S
PINEY ISLAND   NOT AVBL
WILMINGTON     CLOUDY    78  75  90 NE9       30.09R


$$

NCZ011>013-027>030-043-044-078>080-089-090>093-098-291400-
COASTAL PLAIN

CITY           SKY/WX    TMP DP  RH WIND       PRES   REMARKS
AHOSKIE        CLOUDY    73  70  93 N5        30.14R
CLINTON        CLOUDY    75  74  94 NE6       30.11F
ELIZABETHTOWN  CLOUDY    77  76  98 NE3       30.11R
GOLDSBORO      CLOUDY    75  75 100 N6        30.10S
GREENVILLE     CLOUDY    73  73 100 N6        30.13R FOG
HAVELOCK       PTSUNNY   80  76  87 NE6       30.09S
KENANSVILLE    CLOUDY    75  72  88 N7        30.12R
KINSTON        CLOUDY    73  73 100 NE7       30.12S FOG
NEW BERN       CLOUDY    78  75  90 N7        30.10S
RICHLANDS      CLOUDY    75  75 100 N5        30.11R FOG
ROCKY MOUNT    CLOUDY    74  72  93 N9        30.14R
WASHINGTON     CLOUDY    75  74  96 N6        30.11S FOG
WHITEVILLE     CLOUDY    77  73  87 NE7       30.10R

$$

AMZ130-135-150-152-154-156-158-170-250-252-270-ANZ085-086-088-633-658-670-291400-
MARINE OBSERVATIONS

STATION/POSITION TIME  TEMP    WIND        PRES    WAVE   SWELL
                       AIR SEA DIR/SP/G            HT/PER HT/PER
                 (UTC) (F)     (DEG/KT/KT) (MB)    (FT/S) (FT/S)
CHESAPEAKE LIGHT NOT AVBL
64 E VA BEACH    1250   80 81   50/ 14/ 16 1018.7    4/ 9   3/ 9
DUCK             1300   79 78   60/  8/  8 1018.8
2 E DUCK         1211      78                N/A     4/14   2/14
OREGON INLET     1300   80 80   20/  9/ 11 1018.8
13E OREGON INLT  1300      80                N/A     5/ 9   5/ 9
HATTERAS CG      1300   82 82   30/  8/ 11 1018.0
DIAMOND BUOY     1250   83 84   60/ 14/ 16 1017.9    7/ 9   7/ 9
CAPE LOOKOUT     1300   81      10/  8/ 10 1018.0
BEAUFORT LAB     1300   82 81   20/  4/  9 1017.8
30 SE NEW RVR IN 1308   82 84   40/ 10/ 14 1018.2
30 SE NEW RVR IN 1225      84                N/A     4/13   2/13
27 SE WRIGHTSVLE 1308   83 83   40/ 12/ 17 1018.3
5 SE WRIGHTSVLE  1208   79 83   30/ 10/ 14 1019.3
225 S CAPE HAT   1250   82 84  350/ 14/ 19 1016.4    5/13   5/13
41 SE CHARLESTON 1250   81 85   70/  4/  6 1017.4    3/ 9   3/ 9

$$




USA.gov is the U.S. government's official web portal to all federal, state and local government web resources and services.